Location: Newark
(45.8667°N, 9.7333°E)
Time: 13:41:44
(UTC+00:00)

Vanguard 3 - Pass Details

Date: 26 January 2020
Orbit: 508 x 3263 km, 33.3° (Epoch: 24 February)

Event Time Altitude Azimuth Distance (km) Brightness Sun altitude
Rises 16:48:05 0° 236° (WSW) 6,926 13.9 -5.8°
Reaches altitude 10° 16:52:44 10° 232° (SW) 6,074 13.0 -6.5°
Maximum altitude 17:11:09 49° 166° (SSE) 3,737 10.5 -9.6°
Drops below altitude 10° 17:26:29 10° 98° (E) 5,145 10.6 -12.1°
Enters shadow 17:26:40 10° 98° (E) 5,178 10.7 -12.1°
Sets 17:30:01 0° 93° (E) 5,842 - -12.7°
